sat.trackr.live / text

‹ back to catalog

2022-098C

NORAD 53446 · 2022-098C

PAYLOAD ACTIVE UNKNOWN

§ Identity

Operator
Country
PRC
Launch date
2022-08-10
Launch site
TAISC
Launch vehicle
Mass (kg)
RCS (m²)

External: N2YO · Heavens-Above · Gunter

§ Orbital elements

Epoch: 2026-05-25T05:05:40.902144Z

Period
92.07 min
Inclination
97.5597°
Eccentricity
0.0003105
Mean motion
15.63955101 rev/d
Perigee alt
374.1 km
Apogee alt
378.3 km
Semi-major
6,754.4 km
B*
6.7514e-4
RAAN
273.8911°
Arg perigee
127.5492°
Mean anomaly
232.6049°
Rev number
21,105

§ Raw data

2022-098C1 53446U 22098C   26145.21227896  .00063803  00000+0  67514-3 0  99932 53446  97.5597 273.8911 0003105 127.5492 232.6049 15.63955101211057

JSON: /api/v1/satellites/53446 · /tle

For live sub-satellite position, see the globe view (requires WebGL).

§ Visibility from observer

Set your observer location to see the next 7 days of passes ≥ 10°. The values pass through the URL so the page stays shareable.

No JS? Fill the form by hand. The geolocation button needs JavaScript.